SL-16 DEB, 24299

Orbit data source: Space-Track

SL-16 DEB, 24299 is space debris in LEO originally from a launch on Wed, 04 Sep 1996 UTC launched from the Tyuratam Missile And Space Complex (TTMTR). Debris objects in space refer to the collection of defunct objects orbiting the Earth. Examples of debris include non-operational satellites, rocket bodies, and fragments generated from explosions, collisions, or faulty payload assembly.

Loading next visibility...
Identifier
24299, 1996-051C
Orbit
LEO
Country
Flag of CISCIS
Related business
Manufacturer
Yuzhnoe
Mission
Spacecraft
Bus & Motor
SEP MOTOR COVER, Unknown motor
Mass
~0 kg wet, ~1 kg dry
Launch date (UTC)
1996-09-04 (29 years ago)
Launch vehicle
Unknown
Launch site
Tyuratam Missile And Space Complex (TTMTR)
Object type
Payload
Rocket body
Debris
Shape & HBR
Unknown
Radar Cross Section
Small (<0.1 m²)

Expand to show TLE details & history
Last TLE update: 21 hours ago

TLE from 21 hours ago
0 SL-16 DEB
1 24299U 96051C   25308.84355110  .00000150  00000-0  17475-3 0  9995
2 24299  71.0350 156.9706 0190577 336.0835  23.1498 13.75798764463866
Epoch: 2025-11-04T20:14Z
TLE epoch observation values (Epoch: 2025-11-04T20:14:42.815Z)
Latitude
0.00007°
Longitude
168.96747°
Altitude
852.675 km
Speed
7.491 km/s
True Right ascension
10h 27m 52s
True Declination
0° 00' 00"
Sunlit
Object was in daylight at epoch
Visualization orbit readout
Latitude
Unknown
Longitude
Unknown
Altitude
Unknown
Speed
Unknown
Apparent Right ascension
Unknown
Apparent Declination
Unknown
Sunlit
N/A
Visualization observer readout
Local Sidereal Time
12:48:38
Azimuth
Unknown
Elevation
Unknown
Doppler factor
Unknown
Orbital elements
Apogee altitude
1,116.953 km
Perigee altitude
836.617 km
Semi-major axis
7,354.922 km
Eccentricity
0.01906
Inclination
71.035°
RAAN
156.9706°
Arg. of periapsis
336.0835°
True anomaly
24.02753°
Mean anomaly
23.1498°
Eccentric anomaly
23.58672°
Mean motion
3.44093 °/min
Orbital period
104.62 mins
BSTAR
0.00017475
Loading maneuver chart data...
Computing Atmospheric mass density...
Loading historical data...
Loading historical data...
Loading historical data...
Loading historical data...
Loading historical data...
Loading historical data...
Loading historical data...

Documentation

Showing up to 5 results
|